This is the latest recevied weather packets stored in our database for station/object W4SKW. If no packets are shown the sender has not sent any weather packets the latest 10 day(s).
| Time | Temp. | Humidity | Pressure | Rain* | Wind** | Luminosity | Snow |
|---|---|---|---|---|---|---|---|
| 1777412841 | 18.89° C | 93% | 1019 hPa | 0 mm | - | 45 W/m² | - |
| 1777412540 | 18.89° C | 93% | 1019 hPa | 0 mm | - | 46 W/m² | - |
| 1777412237 | 19.44° C | 93% | 1018.8 hPa | 0 mm | - | 52 W/m² | - |
| 1777411934 | 19.44° C | 90% | 1019.1 hPa | 0 mm | - | 46 W/m² | - |
| 1777411632 | 19.44° C | 90% | 1018.9 hPa | 0 mm | - | 42 W/m² | - |
| 1777411328 | 20° C | 89% | 1019.1 hPa | 0 mm | - | 49 W/m² | - |
| 1777411027 | 20° C | 89% | 1019.1 hPa | 0 mm | - | 49 W/m² | - |
| 1777410727 | 20° C | 88% | 1019 hPa | 0 mm | - | 53 W/m² | - |
| 1777410421 | 19.44° C | 92% | 1018.9 hPa | 0 mm | - | 87 W/m² | - |
| 1777410120 | 20° C | 92% | 1018.6 hPa | 0 mm | - | 97 W/m² | - |
| 1777409815 | 20° C | 90% | 1018.9 hPa | 0 mm | - | 67 W/m² | - |
| 1777409511 | 20° C | 91% | 1018.9 hPa | 0 mm | - | 104 W/m² | - |
| 1777409207 | 20° C | 88% | 1019.1 hPa | 0 mm | - | 123 W/m² | - |
| 1777408903 | 20° C | 90% | 1019.4 hPa | 0 mm | - | 111 W/m² | - |
| 1777408600 | 20° C | 91% | 1019.4 hPa | 0 mm | - | 101 W/m² | - |
| 1777408296 | 20° C | 89% | 1019.5 hPa | 0 mm | - | 125 W/m² | - |
| 1777407996 | 20° C | 89% | 1019.8 hPa | 0 mm | - | 110 W/m² | - |
| 1777407693 | 20° C | 91% | 1019.8 hPa | 0 mm | - | 156 W/m² | - |
| 1777407387 | 20° C | 91% | 1020.1 hPa | 0 mm | - | 168 W/m² | - |
| 1777407082 | 19.44° C | 91% | 1020.7 hPa | 0 mm | - | 128 W/m² | - |
| 1777406778 | 19.44° C | 91% | 1020.7 hPa | 0 mm | - | 128 W/m² | - |
| 1777406473 | 19.44° C | 91% | 1020.7 hPa | 0 mm | - | 119 W/m² | - |
| 1777406169 | 19.44° C | 90% | 1020.5 hPa | 0 mm | - | 94 W/m² | - |
| 1777405864 | 19.44° C | 92% | 1020.4 hPa | 0 mm | - | 110 W/m² | - |
| 1777405560 | 19.44° C | 91% | 1020.5 hPa | 0 mm | - | 109 W/m² | - |
* Rain latest hour (hover to see other rain measurements)
** Current wind speed in m/s (hover to see current wind gust speed)